Starlink 5148

operational
NORAD ID: 53978 Int'l Des: 2022-125 Owner: SPXS Country: US Constellation: starlink
LEOCIRCULAR

About Starlink 5148

Description loading...

Live Position

Loading 3D Globe...

Upcoming Passes

Altitude History

Altitude vs Time

uPlot chart will show altitude changes over time

Two-Line Element Set

1 53978U 22125Q 26074.58612553 -.00001046 00000-0 -47654-4 0 9991
2 53978 53.2172 192.5637 0001282 95.8781 264.2357 15.08835956190287
Epoch: Mar 15, 2026 • Age: 8 hours

Current Status

Altitude 546.3 km
Velocity 7.59 km/s
Sub-Earth Point -21.37°S, 32.22°E
Launch Date Oct 5, 2022
Age 3.4 years
Type internet

Technical Details

Classification Payload
Mass 305.00 kg
Dry Mass 290.00 kg
Total Mass 305.00 kg
Length 0.20 m
Diameter 2.80 m
Span 9.00 m
Shape Box + pan
Manufacturer SPXS
Bus Type Starlink
Phase Status In Orbit
Owner/State SPXS/US

Large Constellations

Loading constellations...